Garrett, IN

9:57 AM EST on December 09, 2016 (GMT -0500)
Auburn

Weather History for KGWB - October, 2013

Change the Weather History Date:

Friday, October 25, 2013

  Actual Average (KFWA) Record (KFWA)
Temperature  
Mean Temperature 39 °F -  
Max Temperature 48 °F 58 °F 82 °F (1963)
Min Temperature 30 °F 40 °F 23 °F (1960)
Degree Days  
Heating Degree Days 26    
Moisture  
Dew Point 28 °F    
Average Humidity 70    
Maximum Humidity 100    
Minimum Humidity 37    
Precipitation  
Precipitation 0.00 in - - ()
Sea Level Pressure  
Sea Level Pressure 30.29 in    
Wind  
Wind Speed 6 mph (WSW)    
Max Wind Speed 13 mph    
Max Gust Speed 20 mph    
Visibility 10 miles    
Events Snow    
Averages and records for this station are not official NWS values.
T = Trace of Precipitation, MM = Missing Value Source: NWS Daily Summary

Daily Weather History Graph

Daily Weather History Graph

Search for Another Location

Airport or City:

Trip Planner

Search our weather history database for the weather conditions in past years. The results will help you decide how hot, cold, wet, or windy it might be!

Date:

Astronomy

Oct. 25, 2013 Rise Set
Actual Time 8:03 AM EDT 6:44 PM EDT
Civil Twilight 7:35 AM EDT 7:12 PM EDT
Nautical Twilight 7:03 AM EDT 7:44 PM EDT
Astronomical Twilight 6:30 AM EDT 8:16 PM EDT
Moon No Moon Rise 1:44 PM EDT (10/25)
Length of Visible Light 11h 37m
Length of Day
10h 40m
Waning Gibbous, 62% of the Moon is Illuminated
Oct 25
Waning Gibbous
Oct 26
Last Quarter
Nov 3
New
Nov 10
First Quarter
Nov 17
Full

Hourly Weather History & Observations

Time (EDT) Temp. Windchill Dew Point Humidity Pressure Visibility Wind Dir Wind Speed Gust Speed Precip Events Conditions
12:15 AM 35.6 °F 29.9 °F 32.0 °F 87% 30.24 in 10.0 mi West 6.9 mph - N/A   Overcast
12:35 AM 35.6 °F 29.9 °F 32.0 °F 87% 30.24 in 10.0 mi West 6.9 mph - N/A   Light Drizzle
12:55 AM 35.6 °F 29.9 °F 32.0 °F 87% 30.24 in 10.0 mi West 6.9 mph - N/A   Mostly Cloudy
1:15 AM 33.8 °F 29.6 °F 32.0 °F 93% 30.24 in 10.0 mi West 4.6 mph - N/A   Scattered Clouds
1:35 AM 33.8 °F 30.8 °F 32.0 °F 93% 30.25 in 10.0 mi West 3.5 mph - N/A   Clear
1:55 AM 33.8 °F 29.6 °F 32.0 °F 93% 30.25 in 10.0 mi West 4.6 mph - N/A   Clear
2:15 AM 32.0 °F 27.5 °F 32.0 °F 100% 30.25 in 10.0 mi West 4.6 mph - N/A   Clear
2:35 AM 32.0 °F 28.7 °F 32.0 °F 100% 30.26 in 7.0 mi West 3.5 mph - N/A   Clear
2:55 AM 32.0 °F 27.5 °F 30.2 °F 93% 30.26 in 7.0 mi West 4.6 mph - N/A   Clear
3:15 AM 32.0 °F 27.5 °F 30.2 °F 93% 30.26 in 7.0 mi West 4.6 mph - N/A   Clear
3:35 AM 32.0 °F 28.7 °F 30.2 °F 93% 30.27 in 7.0 mi WSW 3.5 mph - N/A   Clear
3:55 AM 32.0 °F 27.5 °F 30.2 °F 93% 30.28 in 10.0 mi West 4.6 mph - N/A   Clear
4:15 AM 32.0 °F 28.7 °F 30.2 °F 93% 30.27 in 10.0 mi West 3.5 mph - N/A   Clear
4:35 AM 30.2 °F - 28.4 °F 93% 30.27 in 10.0 mi Calm Calm - N/A   Clear
4:55 AM 32.0 °F 28.7 °F 28.4 °F 87% 30.27 in 10.0 mi West 3.5 mph - N/A   Clear
5:15 AM 30.2 °F 26.7 °F 28.4 °F 93% 30.28 in 10.0 mi West 3.5 mph - N/A   Clear
5:35 AM 32.0 °F 27.5 °F 28.4 °F 87% 30.29 in 10.0 mi West 4.6 mph - N/A   Scattered Clouds
5:55 AM 32.0 °F - 28.4 °F 87% 30.30 in 10.0 mi Calm Calm - N/A   Mostly Cloudy
6:15 AM 32.0 °F 27.5 °F 28.4 °F 87% 30.30 in 10.0 mi WSW 4.6 mph - N/A   Overcast
6:35 AM 32.0 °F 27.5 °F 28.4 °F 87% 30.31 in 10.0 mi West 4.6 mph - N/A   Overcast
6:55 AM 32.0 °F 28.7 °F 30.2 °F 93% 30.32 in 10.0 mi West 3.5 mph - N/A   Overcast
7:15 AM 32.0 °F 27.5 °F 30.2 °F 93% 30.33 in 10.0 mi West 4.6 mph - N/A   Overcast
7:35 AM 32.0 °F 25.6 °F 30.2 °F 93% 30.33 in 7.0 mi West 6.9 mph - N/A Snow Light Snow
7:55 AM 32.0 °F 26.4 °F 30.2 °F 93% 30.33 in 10.0 mi West 5.8 mph - N/A   Overcast
8:15 AM 32.0 °F 26.4 °F 30.2 °F 93% 30.34 in 10.0 mi West 5.8 mph - N/A   Overcast
8:35 AM 32.0 °F 28.7 °F 30.2 °F 93% 30.35 in 10.0 mi West 3.5 mph - N/A   Mostly Cloudy
8:55 AM 32.0 °F - 30.2 °F 93% 30.35 in 10.0 mi Calm Calm - N/A   Clear
9:15 AM 32.0 °F 26.4 °F 30.2 °F 93% 30.36 in 10.0 mi West 5.8 mph - N/A   Clear
9:35 AM 33.8 °F 27.7 °F 30.2 °F 87% 30.37 in 10.0 mi West 6.9 mph - N/A   Scattered Clouds
9:55 AM 35.6 °F 30.7 °F 32.0 °F 87% 30.37 in 10.0 mi West 5.8 mph - N/A   Scattered Clouds
10:15 AM 37.4 °F 32.1 °F 32.0 °F 81% 30.38 in 10.0 mi West 6.9 mph - N/A   Clear
10:35 AM 37.4 °F 34.9 °F 32.0 °F 81% 30.37 in 10.0 mi West 3.5 mph - N/A   Clear
10:55 AM 39.2 °F 35.9 °F 32.0 °F 75% 30.37 in 10.0 mi West 4.6 mph - N/A   Clear
11:15 AM 41.0 °F 38.0 °F 32.0 °F 70% 30.38 in 10.0 mi West 4.6 mph - N/A   Clear
11:35 AM 42.8 °F 39.3 °F 32.0 °F 66% 30.37 in 10.0 mi West 5.8 mph - N/A   Clear
11:55 AM 42.8 °F 38.6 °F 32.0 °F 66% 30.37 in 10.0 mi West 6.9 mph - N/A   Clear
12:15 PM 44.6 °F 40.7 °F 32.0 °F 61% 30.37 in 10.0 mi West 6.9 mph - N/A   Scattered Clouds
12:35 PM 44.6 °F 40.2 °F 30.2 °F 57% 30.37 in 10.0 mi WSW 8.1 mph - N/A   Mostly Cloudy
12:55 PM 46.4 °F 41.5 °F 30.2 °F 53% 30.36 in 10.0 mi WNW 10.4 mph 17.3 mph N/A   Overcast
1:15 PM 44.6 °F 39.7 °F 28.4 °F 53% 30.36 in 10.0 mi West 9.2 mph 16.1 mph N/A   Mostly Cloudy
1:35 PM 44.6 °F 39.7 °F 28.4 °F 53% 30.35 in 10.0 mi WSW 9.2 mph - N/A   Mostly Cloudy
1:55 PM 44.6 °F 40.2 °F 28.4 °F 53% 30.35 in 10.0 mi WSW 8.1 mph - N/A   Overcast
2:15 PM 44.6 °F 39.2 °F 28.4 °F 53% 30.33 in 10.0 mi West 10.4 mph - N/A   Overcast
2:35 PM 46.4 °F 41.5 °F 26.6 °F 46% 30.32 in 10.0 mi WSW 10.4 mph - N/A   Overcast
2:55 PM 44.6 °F 39.2 °F 24.8 °F 46% 30.31 in 10.0 mi SW 10.4 mph - N/A   Mostly Cloudy
3:15 PM 46.4 °F 42.4 °F 23.0 °F 40% 30.31 in 10.0 mi WSW 8.1 mph - N/A   Scattered Clouds
3:35 PM 46.4 °F 42.4 °F 23.0 °F 40% 30.30 in 10.0 mi WSW 8.1 mph - N/A   Scattered Clouds
3:55 PM 48.2 °F - 23.0 °F 37% 30.30 in 10.0 mi West 8.1 mph 18.4 mph N/A   Scattered Clouds
4:15 PM 46.4 °F 42.4 °F 21.2 °F 37% 30.30 in 10.0 mi WSW 8.1 mph 19.6 mph N/A   Scattered Clouds
4:35 PM 44.6 °F 40.2 °F 23.0 °F 43% 30.29 in 10.0 mi West 8.1 mph - N/A   Scattered Clouds
4:55 PM 44.6 °F 38.4 °F 23.0 °F 43% 30.29 in 10.0 mi West 12.7 mph 16.1 mph N/A   Clear
5:15 PM 44.6 °F 40.7 °F 23.0 °F 43% 30.28 in 10.0 mi WSW 6.9 mph - N/A   Scattered Clouds
5:35 PM 46.4 °F 41.9 °F 23.0 °F 40% 30.28 in 10.0 mi WSW 9.2 mph - N/A   Scattered Clouds
5:55 PM 44.6 °F 39.7 °F 23.0 °F 43% 30.27 in 10.0 mi WSW 9.2 mph - N/A   Mostly Cloudy
6:15 PM 44.6 °F 41.4 °F 23.0 °F 43% 30.26 in 10.0 mi SW 5.8 mph - N/A   Scattered Clouds
6:35 PM 42.8 °F 40.1 °F 23.0 °F 46% 30.26 in 10.0 mi SW 4.6 mph - N/A   Clear
6:55 PM 42.8 °F 41.1 °F 24.8 °F 49% 30.25 in 10.0 mi SW 3.5 mph - N/A   Clear
7:15 PM 41.0 °F 39.0 °F 24.8 °F 53% 30.25 in 10.0 mi SSW 3.5 mph - N/A   Clear
7:35 PM 39.2 °F 35.9 °F 26.6 °F 61% 30.25 in 10.0 mi SSW 4.6 mph - N/A   Clear
7:55 PM 37.4 °F 34.9 °F 26.6 °F 65% 30.24 in 10.0 mi SSW 3.5 mph - N/A   Clear
8:15 PM 37.4 °F 33.8 °F 26.6 °F 65% 30.24 in 10.0 mi SSW 4.6 mph - N/A   Clear
8:35 PM 37.4 °F 33.8 °F 26.6 °F 65% 30.23 in 10.0 mi SSW 4.6 mph - N/A   Clear
8:55 PM 37.4 °F 33.8 °F 26.6 °F 65% 30.22 in 10.0 mi SSW 4.6 mph - N/A   Clear
9:15 PM 37.4 °F 32.8 °F 26.6 °F 65% 30.21 in 10.0 mi SSW 5.8 mph - N/A   Clear
9:35 PM 39.2 °F 34.2 °F 26.6 °F 61% 30.21 in 10.0 mi SSW 6.9 mph - N/A   Clear
9:55 PM 39.2 °F 34.2 °F 26.6 °F 61% 30.20 in 10.0 mi SSW 6.9 mph - N/A   Clear
10:15 PM 39.2 °F 33.6 °F 26.6 °F 61% 30.19 in 10.0 mi SSW 8.1 mph - N/A   Clear
10:35 PM 41.0 °F 34.7 °F 26.6 °F 57% 30.19 in 10.0 mi SSW 10.4 mph - N/A   Clear
10:55 PM 41.0 °F 35.8 °F 26.6 °F 57% 30.18 in 10.0 mi SSW 8.1 mph - N/A   Clear
11:15 PM 41.0 °F 35.2 °F 26.6 °F 57% 30.18 in 10.0 mi SSW 9.2 mph - N/A   Clear
11:35 PM 41.0 °F 35.2 °F 26.6 °F 57% 30.17 in 10.0 mi SSW 9.2 mph 16.1 mph N/A   Clear
11:55 PM 41.0 °F 33.9 °F 26.6 °F 57% 30.16 in 10.0 mi SSW 12.7 mph 18.4 mph N/A   Clear